TPC1496 KTUS-KTCS

Flight info

Callsign TPC1496
Flight time 0h 34m
Altitude 31000
Route WLDKT4 SSO J166 TCS
Aircraft A20N/M-SDE2E3FGHIRWXY/LB1

Departure

Time 2026-04-24 02:15
Airport Tucson International Airport (KTUS)

Arrival

Time 2026-04-24 02:49
Airport Truth or Consequences Municipal Airport (KTCS)
Time Latitude Longitude Altitude Speed Heading
2026-04-24 02:04 32.11917 -110.93798 2599 ft 0 kts 79°
2026-04-24 02:07 32.11918 -110.93801 2599 ft 2 kts 56°
2026-04-24 02:08 32.11908 -110.93802 2599 ft 2 kts 349°
2026-04-24 02:08 32.11901 -110.93801 2587 ft 0 kts 61°
2026-04-24 02:08 32.11897 -110.93813 2588 ft 2 kts 74°
2026-04-24 02:08 32.11892 -110.93832 2590 ft 2 kts 98°
2026-04-24 02:09 32.11893 -110.93838 2590 ft 0 kts 142°
2026-04-24 02:09 32.11891 -110.93836 2591 ft 2 kts 143°
2026-04-24 02:09 32.11841 -110.93811 2589 ft 13 kts 157°
2026-04-24 02:10 32.11738 -110.93806 2600 ft 16 kts 180°
2026-04-24 02:10 32.11649 -110.93736 2605 ft 16 kts 140°
2026-04-24 02:10 32.11562 -110.93647 2608 ft 18 kts 138°
2026-04-24 02:10 32.11474 -110.93543 2613 ft 18 kts 133°
2026-04-24 02:11 32.11384 -110.93435 2617 ft 19 kts 135°
2026-04-24 02:11 32.11282 -110.93318 2620 ft 21 kts 136°
2026-04-24 02:11 32.11172 -110.93190 2622 ft 24 kts 135°
2026-04-24 02:11 32.11053 -110.93046 2624 ft 25 kts 134°
2026-04-24 02:12 32.10926 -110.92895 2627 ft 27 kts 135°
2026-04-24 02:12 32.10798 -110.92741 2635 ft 26 kts 135°
2026-04-24 02:12 32.10669 -110.92589 2640 ft 26 kts 134°
2026-04-24 02:12 32.10538 -110.92436 2645 ft 27 kts 135°
2026-04-24 02:13 32.10404 -110.92280 2648 ft 23 kts 134°
2026-04-24 02:13 32.10292 -110.92190 2649 ft 11 kts 191°
2026-04-24 02:13 32.10242 -110.92247 2649 ft 11 kts 227°
2026-04-24 02:13 32.10231 -110.92325 2653 ft 11 kts 308°
2026-04-24 02:14 32.10246 -110.92343 2649 ft 1 kts 314°
2026-04-24 02:14 32.10392 -110.92516 2646 ft 69 kts 315°
2026-04-24 02:14 32.10894 -110.93100 2627 ft 131 kts 315°
2026-04-24 02:14 32.11636 -110.93956 2918 ft 153 kts 313°
2026-04-24 02:15 32.12393 -110.94852 3736 ft 156 kts 313°
2026-04-24 02:15 32.13182 -110.95776 4464 ft 164 kts 312°
2026-04-24 02:15 32.14041 -110.96780 5088 ft 184 kts 312°
2026-04-24 02:15 32.15001 -110.97910 5675 ft 207 kts 312°
2026-04-24 02:16 32.16077 -110.99179 6353 ft 230 kts 312°
2026-04-24 02:16 32.17260 -111.00582 7038 ft 252 kts 313°
2026-04-24 02:16 32.18528 -111.02081 7801 ft 269 kts 313°
2026-04-24 02:16 32.19896 -111.03640 8771 ft 277 kts 319°
2026-04-24 02:17 32.21641 -111.04644 9926 ft 285 kts 343°
2026-04-24 02:17 32.23683 -111.04735 10660 ft 311 kts
2026-04-24 02:17 32.25804 -111.03793 11130 ft 344 kts 28°
2026-04-24 02:17 32.27755 -111.01979 11690 ft 366 kts 40°
2026-04-24 02:18 32.29415 -110.99650 12559 ft 379 kts 57°
2026-04-24 02:18 32.30410 -110.96717 13450 ft 391 kts 77°
2026-04-24 02:18 32.30693 -110.93486 14273 ft 398 kts 86°
2026-04-24 02:18 32.30878 -110.90213 15282 ft 397 kts 86°
2026-04-24 02:19 32.31080 -110.86974 16127 ft 395 kts 85°
2026-04-24 02:19 32.31295 -110.83768 16577 ft 398 kts 84°
2026-04-24 02:19 32.31523 -110.80504 16811 ft 399 kts 84°
2026-04-24 02:19 32.31756 -110.77228 16938 ft 401 kts 84°
2026-04-24 02:20 32.31991 -110.73934 16947 ft 402 kts 84°
2026-04-24 02:20 32.32225 -110.70644 16940 ft 400 kts 84°
2026-04-24 02:20 32.32454 -110.67367 16935 ft 398 kts 84°
2026-04-24 02:20 32.32681 -110.64102 16925 ft 401 kts 84°
2026-04-24 02:21 32.32907 -110.60818 16917 ft 400 kts 84°
2026-04-24 02:21 32.33050 -110.57538 16910 ft 400 kts 90°
2026-04-24 02:21 32.32911 -110.54252 16904 ft 401 kts 93°
2026-04-24 02:21 32.32767 -110.50955 16898 ft 401 kts 92°
2026-04-24 02:22 32.32629 -110.47661 16894 ft 401 kts 92°
2026-04-24 02:22 32.32491 -110.44360 17061 ft 404 kts 92°
2026-04-24 02:22 32.32351 -110.41036 17887 ft 405 kts 92°
2026-04-24 02:22 32.32209 -110.37704 18763 ft 407 kts 92°
2026-04-24 02:23 32.32065 -110.34333 19464 ft 413 kts 92°
2026-04-24 02:23 32.31918 -110.30917 20176 ft 419 kts 92°
2026-04-24 02:23 32.31771 -110.27495 20878 ft 424 kts 92°
2026-04-24 02:23 32.31620 -110.23995 21585 ft 429 kts 93°
2026-04-24 02:24 32.31466 -110.20452 22260 ft 434 kts 93°
2026-04-24 02:24 32.31307 -110.16851 22958 ft 439 kts 93°
2026-04-24 02:24 32.31145 -110.13227 23605 ft 445 kts 94°
2026-04-24 02:24 32.30979 -110.09558 24180 ft 449 kts 94°
2026-04-24 02:25 32.30809 -110.05853 24754 ft 454 kts 94°
2026-04-24 02:25 32.30639 -110.02148 25292 ft 458 kts 94°
2026-04-24 02:25 32.30465 -109.98363 25838 ft 462 kts 94°
2026-04-24 02:25 32.30290 -109.94604 26358 ft 467 kts 94°
2026-04-24 02:26 32.30110 -109.90748 26861 ft 471 kts 94°
2026-04-24 02:26 32.29927 -109.86863 27374 ft 475 kts 94°
2026-04-24 02:26 32.29742 -109.82939 27849 ft 480 kts 94°
2026-04-24 02:26 32.29554 -109.78987 28325 ft 484 kts 94°
2026-04-24 02:27 32.29362 -109.74991 28787 ft 488 kts 94°
2026-04-24 02:27 32.29168 -109.70960 29235 ft 492 kts 94°
2026-04-24 02:27 32.28971 -109.66903 29637 ft 497 kts 94°
2026-04-24 02:27 32.28771 -109.62811 30085 ft 500 kts 94°
2026-04-24 02:28 32.28568 -109.58684 30371 ft 507 kts 94°
2026-04-24 02:28 32.28363 -109.54550 30653 ft 512 kts 94°
2026-04-24 02:28 32.28151 -109.50315 30789 ft 518 kts 94°
2026-04-24 02:28 32.27938 -109.46066 30833 ft 518 kts 94°
2026-04-24 02:29 32.27507 -109.37575 30828 ft 517 kts 94°
2026-04-24 02:29 32.27286 -109.29088 30830 ft 518 kts 84°
2026-04-24 02:30 32.27933 -109.24908 30830 ft 516 kts 72°
2026-04-24 02:30 32.29218 -109.20978 30828 ft 512 kts 59°
2026-04-24 02:30 32.33047 -109.13943 30829 ft 506 kts 50°
2026-04-24 02:31 32.36975 -109.07021 30849 ft 507 kts 53°
2026-04-24 02:31 32.40734 -108.99948 30873 ft 507 kts 54°
2026-04-24 02:32 32.44408 -108.92891 30916 ft 506 kts 54°
2026-04-24 02:32 32.48094 -108.85790 30939 ft 505 kts 54°
2026-04-24 02:33 32.51772 -108.78698 30941 ft 505 kts 54°
2026-04-24 02:33 32.55446 -108.71601 30922 ft 505 kts 54°
2026-04-24 02:34 32.59118 -108.64492 30905 ft 504 kts 54°
2026-04-24 02:34 32.62752 -108.57444 30870 ft 504 kts 54°
2026-04-24 02:35 32.66393 -108.50365 30685 ft 499 kts 56°
2026-04-24 02:35 32.68001 -108.46717 30296 ft 496 kts 60°
2026-04-24 02:35 32.69518 -108.43071 29852 ft 489 kts 61°
2026-04-24 02:36 32.71011 -108.39469 29261 ft 484 kts 61°
2026-04-24 02:36 32.72488 -108.35903 28656 ft 479 kts 61°
2026-04-24 02:36 32.73958 -108.32361 28052 ft 475 kts 61°
2026-04-24 02:36 32.75411 -108.28859 27477 ft 470 kts 61°
2026-04-24 02:37 32.76849 -108.25393 26891 ft 465 kts 61°
2026-04-24 02:37 32.78272 -108.21960 26317 ft 461 kts 61°
2026-04-24 02:37 32.79683 -108.18553 25738 ft 457 kts 61°
2026-04-24 02:37 32.81081 -108.15175 25174 ft 453 kts 61°
2026-04-24 02:38 32.82444 -108.11876 24626 ft 449 kts 61°
2026-04-24 02:38 32.83818 -108.08551 24071 ft 445 kts 61°
2026-04-24 02:38 32.85178 -108.05255 23535 ft 441 kts 61°
2026-04-24 02:38 32.86527 -108.01983 22906 ft 437 kts 61°
2026-04-24 02:39 32.87856 -107.98753 22336 ft 432 kts 61°
2026-04-24 02:39 32.89172 -107.95551 21741 ft 428 kts 61°
2026-04-24 02:39 32.90473 -107.92384 21171 ft 423 kts 61°
2026-04-24 02:39 32.91761 -107.89249 20614 ft 419 kts 61°
2026-04-24 02:40 32.93032 -107.86151 20101 ft 415 kts 61°
2026-04-24 02:40 32.94294 -107.83074 19594 ft 412 kts 61°
2026-04-24 02:40 32.95547 -107.80017 19052 ft 409 kts 61°
2026-04-24 02:40 32.96770 -107.77029 18625 ft 404 kts 61°
2026-04-24 02:41 32.97995 -107.74031 18078 ft 401 kts 61°
2026-04-24 02:41 32.99212 -107.71053 17472 ft 398 kts 61°
2026-04-24 02:41 33.00421 -107.68093 16877 ft 396 kts 61°
2026-04-24 02:41 33.01462 -107.65055 16247 ft 397 kts 72°
2026-04-24 02:42 33.01908 -107.61822 15692 ft 396 kts 88°
2026-04-24 02:42 33.01800 -107.58620 15460 ft 377 kts 94°
2026-04-24 02:42 33.01658 -107.55579 15223 ft 360 kts 93°
2026-04-24 02:42 33.01535 -107.52622 14615 ft 357 kts 93°
2026-04-24 02:43 33.01414 -107.49679 14017 ft 354 kts 93°
2026-04-24 02:43 33.01290 -107.46766 13623 ft 344 kts 93°
2026-04-24 02:43 33.01171 -107.43987 13443 ft 327 kts 93°
2026-04-24 02:43 33.01059 -107.41396 13276 ft 308 kts 93°
2026-04-24 02:44 33.01104 -107.38899 13067 ft 288 kts 74°
2026-04-24 02:44 33.01886 -107.36865 12972 ft 254 kts 45°
2026-04-24 02:44 33.03145 -107.35647 12452 ft 225 kts 14°
2026-04-24 02:44 33.04596 -107.35039 11662 ft 219 kts
2026-04-24 02:45 33.06062 -107.34530 10965 ft 218 kts
2026-04-24 02:45 33.07505 -107.34000 10323 ft 216 kts
2026-04-24 02:45 33.08927 -107.33432 9708 ft 214 kts 10°
2026-04-24 02:45 33.09851 -107.33046 9283 ft 212 kts 10°
2026-04-24 02:46 33.11235 -107.32453 8660 ft 210 kts 11°
2026-04-24 02:46 33.13034 -107.31667 7779 ft 207 kts 12°
2026-04-24 02:46 33.14381 -107.31082 7171 ft 204 kts 13°
2026-04-24 02:46 33.15660 -107.30502 6890 ft 187 kts 15°
2026-04-24 02:47 33.16818 -107.29950 6679 ft 176 kts 17°
2026-04-24 02:47 33.17508 -107.29453 6529 ft 175 kts 34°
2026-04-24 02:47 33.18331 -107.28381 6334 ft 175 kts 49°
2026-04-24 02:47 33.19004 -107.27199 6172 ft 170 kts 52°
2026-04-24 02:48 33.19635 -107.26023 5930 ft 166 kts 54°
2026-04-24 02:48 33.20305 -107.24938 5702 ft 156 kts 31°
2026-04-24 02:48 33.21237 -107.24774 5468 ft 131 kts 326°
2026-04-24 02:48 33.21893 -107.25515 5158 ft 130 kts 311°
2026-04-24 02:49 33.22571 -107.26208 4914 ft 126 kts 316°
2026-04-24 02:49 33.23855 -107.27321 4840 ft 53 kts 327°
2026-04-24 02:49 33.24114 -107.27532 4856 ft 35 kts 325°
2026-04-24 02:50 33.24280 -107.27672 4861 ft 14 kts 326°
2026-04-24 02:50 33.24340 -107.27657 4862 ft 11 kts 69°
2026-04-24 02:50 33.24282 -107.27568 4858 ft 19 kts 139°
2026-04-24 02:50 33.24173 -107.27448 4853 ft 24 kts 138°
2026-04-24 02:51 33.24045 -107.27300 4846 ft 26 kts 136°
2026-04-24 02:51 33.23943 -107.27184 4841 ft 20 kts 136°
2026-04-24 02:51 33.23858 -107.27089 4837 ft 17 kts 136°
2026-04-24 02:51 33.23778 -107.26992 4833 ft 13 kts 131°
2026-04-24 02:52 33.23709 -107.26924 4835 ft 9 kts 193°
2026-04-24 02:52 33.23704 -107.26927 4830 ft 0 kts 205°